EW6606 Weather Reports


Display with metric or nautical units.
time (UTC)temp
F
wind
direction
speed
MPH
gust
MPH
rain 1hr
in
rain 24hr
in
rain mn
in
humidity
%
barometer
mb
20260506214803 73 117 1.0 2.0 0.00 0.15 0.15 93 1012.2
20260506214300 73 153 1.0 3.0 0.00 0.15 0.15 93 1012.1
20260506213758 73 122 1.0 5.0 0.00 0.15 0.15 93 1012.2
20260506213254 72 141 2.0 3.0 0.00 0.15 0.15 92 1012.0
20260506212752 72 131 0.0 3.0 0.00 0.15 0.15 92 1012.2
20260506212248 72 115 1.0 3.0 0.02 0.15 0.15 92 1012.2
20260506211743 72 136 2.0 2.0 0.05 0.15 0.15 92 1012.1
20260506211239 72 115 1.0 3.0 0.05 0.14 0.14 91 1012.3
20260506210737 72 154 2.0 2.0 0.09 0.14 0.14 91 1012.4
20260506210233 73 107 0.0 5.0 0.19 0.13 0.13 91 1012.8
20260506205730 73 109 1.0 3.0 0.17 0.12 0.12 90 1012.6
20260506205226 73 122 0.0 3.0 0.05 0.10 0.10 90 1012.7
20260506204718 73 126 1.0 3.0 0.02 0.09 0.09 89 1012.6
20260506204215 73 124 0.0 2.0 0.05 0.09 0.09 88 1012.7
20260506203713 73 138 2.0 3.0 0.09 0.09 0.09 87 1012.7
20260506203209 73 130 1.0 2.0 0.24 0.09 0.09 86 1012.8
20260506202702 74 113 0.0 2.0 0.35 0.07 0.07 85 1012.9
20260506202157 74 143 1.0 4.0 0.19 0.04 0.04 84 1013.1
20260506201655 75 322 0.0 2.0 0.07 0.01 0.01 83 1012.9
20260506201151 75 117 0.0 2.0 0.05 0.01 0.01 83 1012.8
20260506200648 75 114 0.0 1.0 0.00 0.00 0.00 82 1013.0
20260506200144 75 121 2.0 2.0 0.00 0.00 0.00 82 1013.0
20260506195641 75 131 1.0 3.0 0.00 0.00 0.00 82 1013.2
20260506195137 75 113 0.0 3.0 0.00 0.00 0.00 82 1013.1
20260506194635 76 100 1.0 3.0 0.00 0.00 0.00 82 1013.4
20260506194131 76 63 2.0 3.0 0.00 0.00 0.00 82 1013.4
20260506193629 76 115 0.0 2.0 0.00 0.00 0.00 81 1013.4
20260506193126 76 157 2.0 5.0 0.00 0.00 0.00 81 1013.7
20260506192623 76 111 2.0 4.0 0.00 0.00 0.00 81 1013.8
20260506192118 76 133 2.0 2.0 0.00 0.00 0.00 81 1013.9
20260506191615 76 117 0.0 3.0 0.00 0.00 0.00 81 1013.6
20260506191110 76 72 2.0 3.0 0.00 0.00 0.00 80 1013.8
20260506190603 76 110 1.0 6.0 0.00 0.00 0.00 80 1013.8
20260506190100 76 94 2.0 4.0 0.00 0.00 0.00 80 1013.8
20260506185557 77 156 1.0 4.0 0.00 0.00 0.00 80 1014.0
20260506185053 76 109 3.0 3.0 0.00 0.00 0.00 79 1013.9
20260506184551 77 116 2.0 3.0 0.00 0.00 0.00 80 1014.1
20260506184048 77 116 4.0 5.0 0.00 0.00 0.00 80 1014.0
20260506183544 77 148 2.0 4.0 0.00 0.00 0.00 79 1013.8
20260506183040 77 152 1.0 4.0 0.00 0.00 0.00 80 1014.0
20260506182538 77 136 3.0 5.0 0.00 0.00 0.00 80 1014.2
20260506182035 76 154 3.0 6.0 0.00 0.00 0.00 81 1014.0
20260506181533 76 119 1.0 2.0 0.00 0.00 0.00 81 1013.9
20260506181029 75 117 3.0 4.0 0.00 0.00 0.00 81 1014.0
20260506180526 75 109 2.0 6.0 0.00 0.00 0.00 82 1014.0
20260506180023 75 132 1.0 4.0 0.00 0.00 0.00 81 1013.9
20260506175519 75 120 2.0 4.0 0.00 0.00 0.00 81 1014.1
20260506175016 75 143 3.0 5.0 0.00 0.00 0.00 81 1014.1
20260506174515 75 107 2.0 4.0 0.00 0.00 0.00 81 1014.0
20260506174010 75 132 3.0 5.0 0.00 0.00 0.00 80 1014.2
20260506173508 76 128 3.0 5.0 0.00 0.00 0.00 80 1014.4
20260506173005 75 107 2.0 3.0 0.00 0.00 0.00 80 1014.4
20260506172502 75 103 0.0 4.0 0.00 0.00 0.00 80 1014.4
20260506171958 75 112 3.0 6.0 0.00 0.00 0.00 79 1014.5
20260506171455 76 152 3.0 7.0 0.00 0.00 0.00 79 1014.5
20260506170953 76 121 2.0 4.0 0.00 0.00 0.00 79 1014.4
20260506170449 76 34 1.0 3.0 0.00 0.00 0.00 79 1014.5
20260506165942 75 113 1.0 3.0 0.00 0.00 0.00 79 1014.4
20260506165440 76 128 3.0 6.0 0.00 0.00 0.00 78 1014.5
20260506164935 76 137 3.0 5.0 0.00 0.00 0.00 78 1014.6
20260506164432 76 36 1.0 2.0 0.00 0.00 0.00 77 1014.4
20260506163925 76 117 0.0 6.0 0.00 0.00 0.00 78 1014.8
20260506163420 76 115 1.0 4.0 0.00 0.00 0.00 77 1014.5
20260506162915 77 145 4.0 6.0 0.00 0.00 0.00 76 1014.6
20260506162413 77 98 2.0 4.0 0.00 0.00 0.00 77 1014.8
20260506161910 77 97 2.0 3.0 0.00 0.00 0.00 76 1014.5
20260506161408 77 314 2.0 4.0 0.00 0.00 0.00 76 1014.4
20260506160905 77 82 0.0 5.0 0.00 0.00 0.00 76 1014.6
20260506160402 77 310 0.0 2.0 0.00 0.00 0.00 76 1014.5
20260506155900 77 312 1.0 7.0 0.00 0.00 0.00 76 1014.3
20260506155357 77 129 0.0 7.0 0.00 0.00 0.00 76 1014.3
20260506153519 76 139 2.0 4.0 0.00 0.00 0.00 78 1014.5
20260506153017 75 140 2.0 3.0 0.00 0.00 0.00 79 1014.2
20260506152514 75 117 2.0 4.0 0.00 0.00 0.00 79 1014.2
20260506152012 74 178 1.0 4.0 0.00 0.00 0.00 79 1014.3
20260506151509 74 142 2.0 3.0 0.00 0.00 0.00 79 1014.4
20260506151006 74 124 0.0 3.0 0.00 0.00 0.00 79 1014.3
20260506150502 74 114 2.0 3.0 0.00 0.00 0.00 79 1014.3
20260506145959 74 110 2.0 3.0 0.00 0.00 0.00 79 1014.3
20260506145456 74 114 2.0 3.0 0.00 0.00 0.00 79 1014.5
20260506144954 74 89 0.0 2.0 0.00 0.00 0.00 79 1014.4
20260506144450 74 110 1.0 5.0 0.00 0.00 0.00 80 1014.5
20260506143948 74 170 0.0 3.0 0.00 0.00 0.00 80 1014.4
20260506143444 73 100 1.0 4.0 0.00 0.00 0.00 81 1014.5
20260506142943 73 89 0.0 5.0 0.00 0.00 0.00 80 1014.3
20260506142441 73 116 2.0 6.0 0.00 0.00 0.00 80 1014.6
20260506141939 73 125 1.0 5.0 0.00 0.00 0.00 81 1014.4
20260506141436 73 126 1.0 3.0 0.00 0.00 0.00 82 1014.5
20260506140935 73 147 3.0 4.0 0.00 0.00 0.00 82 1014.5
20260506140431 72 124 2.0 3.0 0.00 0.00 0.00 83 1014.4
20260506135928 72 67 2.0 4.0 0.00 0.00 0.00 83 1014.4
20260506135425 72 205 0.0 3.0 0.00 0.00 0.00 83 1014.4
20260506134922 72 112 2.0 4.0 0.00 0.00 0.00 84 1014.5
20260506134418 71 106 3.0 4.0 0.00 0.00 0.00 85 1014.4
20260506133915 71 34 1.0 6.0 0.00 0.00 0.00 85 1014.8
20260506133411 71 120 2.0 3.0 0.00 0.00 0.00 85 1014.8
20260506132908 70 140 2.0 7.0 0.00 0.00 0.00 86 1014.6
20260506132405 70 104 0.0 4.0 0.00 0.00 0.00 86 1014.6
20260506131904 70 120 2.0 5.0 0.00 0.00 0.00 86 1014.9
20260506131359 69 120 3.0 4.0 0.00 0.00 0.00 86 1014.8
20260506130856 69 71 2.0 3.0 0.00 0.00 0.00 87 1014.9
20260506130353 69 164 2.0 4.0 0.00 0.00 0.00 87 1014.9
20260506125851 69 68 4.0 5.0 0.00 0.00 0.00 87 1015.0
20260506125349 69 48 2.0 3.0 0.00 0.00 0.00 87 1015.1
20260506124847 68 58 2.0 5.0 0.00 0.00 0.00 87 1015.0
20260506124343 68 108 2.0 4.0 0.00 0.00 0.00 87 1014.9
20260506123841 68 278 3.0 4.0 0.00 0.00 0.00 87 1014.8
20260506123340 68 120 3.0 5.0 0.00 0.00 0.00 87 1014.8
20260506122836 68 105 3.0 5.0 0.00 0.00 0.00 87 1014.5
20260506122333 68 88 1.0 5.0 0.00 0.00 0.00 87 1014.5
20260506121832 68 329 1.0 4.0 0.00 0.00 0.00 88 1014.6
20260506121328 68 97 1.0 4.0 0.00 0.00 0.00 88 1014.3
20260506120825 68 118 2.0 4.0 0.00 0.00 0.00 88 1014.2
20260506120323 67 122 1.0 5.0 0.00 0.00 0.00 88 1014.4
20260506115820 67 120 3.0 4.0 0.00 0.00 0.00 87 1014.2
20260506115318 67 107 3.0 5.0 0.00 0.00 0.00 88 1013.9
20260506114816 67 102 2.0 10.0 0.00 0.00 0.00 87 1014.1
20260506114314 67 88 1.0 2.0 0.00 0.00 0.00 87 1014.1
20260506113812 67 114 0.0 2.0 0.00 0.00 0.00 87 1013.7
20260506113309 67 126 0.0 2.0 0.00 0.00 0.00 87 1013.9
20260506112806 67 105 1.0 3.0 0.00 0.00 0.00 87 1013.5
20260506112305 67 105 3.0 4.0 0.00 0.00 0.00 87 1013.5
20260506111800 67 125 2.0 9.0 0.00 0.00 0.00 87 1013.5
20260506111258 67 118 1.0 3.0 0.00 0.00 0.00 87 1013.4
20260506110755 67 147 2.0 4.0 0.00 0.00 0.00 87 1013.4
20260506110253 67 142 2.0 3.0 0.00 0.00 0.00 87 1013.5
20260506105749 67 120 3.0 5.0 0.00 0.00 0.00 87 1013.5
20260506105246 66 104 2.0 4.0 0.00 0.00 0.00 87 1013.2
20260506104744 67 180 4.0 6.0 0.00 0.00 0.00 86 1013.4
20260506104241 67 118 1.0 5.0 0.00 0.00 0.00 87 1013.1
20260506103738 67 163 3.0 5.0 0.00 0.00 0.00 86 1013.0
20260506103235 67 110 2.0 3.0 0.00 0.00 0.00 86 1013.0
20260506102733 67 129 4.0 5.0 0.00 0.00 0.00 86 1013.0
20260506102231 67 152 3.0 6.0 0.00 0.00 0.00 86 1012.8
20260506101728 67 134 2.0 4.0 0.00 0.00 0.00 86 1013.2
20260506101224 67 147 2.0 6.0 0.00 0.00 0.00 86 1012.9
20260506100722 67 151 0.0 6.0 0.00 0.00 0.00 86 1012.9
20260506100220 67 116 2.0 4.0 0.00 0.00 0.00 86 1012.6
20260506095718 67 133 2.0 6.0 0.00 0.00 0.00 86 1012.6
20260506095215 67 117 2.0 4.0 0.00 0.00 0.00 85 1012.5
20260506094712 67 109 2.0 4.0 0.00 0.00 0.00 85 1012.5
20260506094210 67 109 1.0 3.0 0.00 0.00 0.00 85 1012.4
20260506093709 67 109 3.0 3.0 0.00 0.00 0.00 85 1012.4
20260506093205 67 121 1.0 3.0 0.00 0.00 0.00 84 1012.4
20260506092703 67 163 4.0 5.0 0.00 0.00 0.00 84 1012.3
20260506092200 67 119 2.0 4.0 0.00 0.00 0.00 84 1012.2
20260506091658 67 57 0.0 4.0 0.00 0.00 0.00 84 1012.0
20260506091155 67 154 3.0 4.0 0.00 0.00 0.00 84 1012.0
20260506090653 67 156 3.0 4.0 0.00 0.00 0.00 83 1012.2
20260506090149 67 163 3.0 5.0 0.00 0.00 0.00 83 1012.0
20260506085646 67 156 0.0 3.0 0.00 0.00 0.00 83 1012.1
20260506085142 67 113 1.0 4.0 0.00 0.00 0.00 83 1011.8
20260506084639 67 129 0.0 5.0 0.00 0.00 0.00 83 1011.6
20260506084136 67 136 3.0 4.0 0.00 0.00 0.00 83 1011.6
20260506083633 67 149 4.0 6.0 0.00 0.00 0.00 83 1011.6
20260506083130 67 157 3.0 4.0 0.00 0.00 0.00 82 1011.8
20260506082627 67 94 2.0 5.0 0.00 0.00 0.00 82 1012.0
20260506082122 67 149 3.0 4.0 0.00 0.00 0.00 82 1012.1
20260506081621 67 121 4.0 7.0 0.00 0.00 0.00 81 1012.2
20260506081118 67 93 1.0 4.0 0.00 0.00 0.00 81 1012.2
20260506080616 67 120 1.0 7.0 0.00 0.00 0.00 81 1012.0
20260506080112 67 132 2.0 4.0 0.00 0.00 0.00 81 1012.0
20260506073056 67 144 2.0 5.0 0.00 0.00 0.00 80 1012.1
20260506072553 67 129 2.0 4.0 0.00 0.00 0.00 79 1012.1
20260506072051 67 170 2.0 4.0 0.00 0.00 0.00 79 1012.0
20260506071548 68 110 1.0 6.0 0.00 0.00 0.00 79 1012.0
20260506071045 68 173 2.0 5.0 0.00 0.00 0.00 78 1012.0
20260506070542 68 142 3.0 4.0 0.00 0.00 0.00 78 1012.2
20260506062017 69 137 3.0 5.0 0.00 0.00 0.00 76 1012.6
20260506061512 69 168 1.0 5.0 0.00 0.00 0.00 75 1012.6
20260506061010 69 158 2.0 4.0 0.00 0.00 0.00 75 1012.8
20260506060509 69 118 2.0 3.0 0.00 0.00 0.00 75 1012.8
20260506050937 69 122 1.0 4.0 0.00 0.00 0.00 74 1012.8
20260506050435 69 111 3.0 6.0 0.00 0.00 0.00 74 1012.8
20260506044925 69 110 1.0 3.0 0.00 0.00 0.00 74 1012.8
20260506044424 69 114 2.0 4.0 0.00 0.00 0.00 73 1012.8
20260506043920 69 151 3.0 5.0 0.00 0.00 0.00 74 1012.6
20260506043417 69 115 2.0 6.0 0.00 0.00 0.00 74 1012.6
20260506042915 69 133 2.0 4.0 0.00 0.00 0.00 74 1012.4
20260506042414 69 160 5.0 7.0 0.00 0.00 0.00 74 1012.7
20260506041912 69 121 2.0 4.0 0.00 0.00 0.00 74 1012.4
20260506041409 69 136 3.0 3.0 0.00 0.00 0.00 74 1012.6
20260506040906 69 123 2.0 3.0 0.00 0.00 0.00 73 1012.5
20260506040404 69 111 2.0 3.0 0.00 0.00 0.00 73 1012.7
20260506035900 69 124 1.0 3.0 0.00 0.00 0.00 73 1012.8
20260506035357 69 156 2.0 5.0 0.00 0.00 0.00 73 1012.7
20260506034854 69 157 2.0 5.0 0.00 0.00 0.00 73 1012.7
20260506034351 69 153 2.0 3.0 0.00 0.00 0.00 72 1012.5
20260506033848 69 158 3.0 3.0 0.00 0.00 0.00 72 1012.9
20260506033345 69 109 1.0 3.0 0.00 0.00 0.00 71 1012.6
20260506032842 69 116 2.0 3.0 0.00 0.00 0.00 71 1012.8
20260506032339 69 110 1.0 3.0 0.00 0.00 0.00 71 1012.8
20260506031836 69 115 1.0 4.0 0.00 0.00 0.00 71 1012.8
20260506031333 69 118 1.0 2.0 0.00 0.00 0.00 71 1012.8
20260506030831 69 119 1.0 2.0 0.00 0.00 0.00 71 1012.8
20260506030329 69 133 2.0 3.0 0.00 0.00 0.00 71 1012.8
20260506025825 69 142 2.0 3.0 0.00 0.00 0.00 71 1012.5
20260506025321 69 132 1.0 3.0 0.00 0.00 0.00 71 1012.5
20260506024819 69 118 2.0 3.0 0.00 0.00 0.00 70 1012.2
20260506024316 70 143 2.0 3.0 0.00 0.00 0.00 70 1012.3
20260506023812 70 124 2.0 3.0 0.00 0.00 0.00 70 1012.2
20260506023309 70 129 1.0 2.0 0.00 0.00 0.00 70 1012.3
20260506022805 70 117 1.0 3.0 0.00 0.00 0.00 70 1012.1
20260506022305 70 116 1.0 2.0 0.00 0.00 0.00 69 1012.3
20260506021801 70 146 1.0 2.0 0.00 0.00 0.00 69 1012.2
20260506021258 70 129 2.0 2.0 0.00 0.00 0.00 69 1012.3
20260506020754 70 142 1.0 3.0 0.00 0.00 0.00 69 1012.1
20260506020252 70 115 1.0 3.0 0.00 0.00 0.00 69 1012.0
20260506015750 70 126 2.0 3.0 0.00 0.00 0.00 69 1011.9
20260506015247 71 118 2.0 2.0 0.00 0.00 0.00 68 1012.2
20260506014744 71 115 2.0 3.0 0.00 0.00 0.00 68 1012.1
20260506014240 71 145 2.0 2.0 0.00 0.00 0.00 68 1012.1
20260506013737 71 112 2.0 2.0 0.00 0.00 0.00 67 1012.1
20260506013235 71 118 2.0 4.0 0.00 0.00 0.00 67 1012.0
20260506012731 71 161 1.0 3.0 0.00 0.00 0.00 67 1011.9
20260506012228 71 129 1.0 3.0 0.00 0.00 0.00 67 1012.1
20260506011725 71 116 2.0 3.0 0.00 0.00 0.00 67 1012.1
20260506011221 71 119 2.0 2.0 0.00 0.00 0.00 67 1012.2
20260506010720 71 141 2.0 3.0 0.00 0.00 0.00 67 1012.1
20260506010217 71 109 1.0 2.0 0.00 0.00 0.00 66 1012.3
20260506005714 72 119 2.0 2.0 0.00 0.00 0.00 66 1012.1
20260506005211 72 117 1.0 2.0 0.00 0.00 0.00 65 1012.1
20260506004707 72 112 1.0 2.0 0.00 0.00 0.00 65 1012.2
20260506004205 72 155 2.0 3.0 0.00 0.00 0.00 64 1012.0
20260506003700 73 128 2.0 3.0 0.00 0.00 0.00 64 1012.0
20260506003157 73 125 2.0 3.0 0.00 0.00 0.00 64 1011.9
20260506002653 73 134 2.0 2.0 0.00 0.00 0.00 63 1012.1
20260506002149 73 161 1.0 3.0 0.00 0.00 0.00 63 1011.9
20260506001645 73 170 2.0 3.0 0.00 0.00 0.00 63 1011.7
20260506001142 73 134 1.0 2.0 0.00 0.00 0.00 62 1011.7
20260506000639 74 164 2.0 3.0 0.00 0.00 0.00 62 1011.9
20260506000136 74 125 2.0 3.0 0.00 0.00 0.00 62 1011.8
20260505235634 74 127 2.0 2.0 0.00 0.00 0.00 62 1012.0
20260505235131 74 121 0.0 2.0 0.00 0.00 0.00 61 1012.0
20260505234628 75 114 1.0 2.0 0.00 0.00 0.00 61 1012.2
20260505234125 75 119 0.0 4.0 0.00 0.00 0.00 61 1012.1
20260505233623 75 132 0.0 3.0 0.00 0.00 0.00 61 1012.4
20260505233120 75 159 2.0 3.0 0.00 0.00 0.00 61 1012.4
20260505232617 75 111 2.0 2.0 0.00 0.00 0.00 60 1012.3
20260505232115 75 120 2.0 3.0 0.00 0.00 0.00 60 1012.7
20260505231612 75 173 2.0 5.0 0.00 0.00 0.00 60 1012.6
20260505231110 75 97 0.0 2.0 0.00 0.00 0.00 60 1012.8
20260505230608 75 143 2.0 3.0 0.00 0.00 0.00 60 1012.8
20260505230104 75 178 2.0 4.0 0.00 0.00 0.00 59 1012.7
20260505225600 76 117 2.0 2.0 0.00 0.00 0.00 60 1012.6
20260505225056 76 113 1.0 3.0 0.00 0.00 0.00 59 1012.7
20260505224553 76 105 1.0 3.0 0.00 0.00 0.00 59 1012.6
20260505224051 75 97 2.0 4.0 0.00 0.00 0.00 59 1012.6
20260505223548 75 155 1.0 4.0 0.00 0.00 0.00 59 1012.6
20260505223044 75 120 2.0 4.0 0.00 0.00 0.00 58 1012.6
20260505222540 75 155 3.0 5.0 0.00 0.00 0.00 58 1012.7
20260505222037 75 145 1.0 3.0 0.00 0.00 0.00 58 1012.7
20260505221534 76 117 0.0 3.0 0.00 0.00 0.00 58 1012.7
20260505221030 75 144 2.0 4.0 0.00 0.00 0.00 57 1012.9
20260505220528 75 152 2.0 5.0 0.00 0.00 0.00 57 1012.6
20260505220026 75 162 0.0 2.0 0.00 0.00 0.00 58 1012.7
20260505215524 75 104 2.0 5.0 0.00 0.00 0.00 56 1012.7